DECAYED

OBJECT XL, 65732 (Decayed)

Orbit data source: Space-Track

You're viewing an uncataloged RSO

Recently launched and/or uncataloged RSOs may have evolving metadata. Metadata may include the following, but is not limited to: Owner, Manufacturer, Bus, Motor, and Mission.

OBJECT XL, 65732 was a satellite owned by Ryman Sat (JP) in LEO that was delivered to and deployed from the ISS. Unknown objects in Earth's orbit typically refer to objects detected orbiting the Earth but have not yet been identified or cataloged. These objects could be anything from previously untracked satellites, spent rocket stages, debris from satellite collisions, or even natural meteoroids temporarily captured by Earth's gravity. This object's orbit decayed before it could be identified.

Not visible in the next 10 days
Identifier
65732, 1998-067XL
Orbit
Decayed
Country
Flag of JPJP / JPN
Related business
Flag of JPRymanSat Project (JP)
Manufacturer
Ryman Sat
Mission
Decayed Amateur Technology
Bus & Motor
CUBESAT 1U, Unknown motor
Mass
1 kg wet, 1 kg dry
Launch date (UTC)
1998-11-20 (28 years ago)
Launch vehicle
FALCON 9
Launch site
Tyuratam Missile And Space Complex (TTMTR)
Object type
Unknown
Shape & HBR
Box, 0.1 m
Radar Cross Section
0.015 m², Medium (>0.1 m² and < 1m²)

Expand to show TLE details & history
Last TLE update: 7 months ago

TLE from 7 months ago
0 OBJECT XL
1 65732U 98067XL  26047.27951905  .10199253  12460-4  79249-3 0  9991
2 65732  51.6061 154.7117 0006246 319.9198  40.1367 16.39378610 23558
Epoch: 2026-02-16T06:42Z
TLE epoch observation values (Epoch: 2026-02-16T06:42:30.445Z)
Latitude
-0.00001°
Longitude
-92.19131°
Altitude
165.097 km
Speed
7.81 km/s
True Right ascension
10h 18m 50s
True Declination
0° 00' 00"
Sunlit
Object was in full shadow at epoch
Visualization orbit readout
Latitude
Unknown
Longitude
Unknown
Altitude
Unknown
Speed
Unknown
Apparent Right ascension
Unknown
Apparent Declination
Unknown
Sunlit
N/A
Visualization observer readout
Local Sidereal Time
14:08:30
Azimuth
Unknown
Elevation
Unknown
Doppler factor
Unknown
Orbital elements
Apogee altitude
172.077 km
Perigee altitude
163.9 km
Semi-major axis
6,546.126 km
Eccentricity
0.00062
Inclination
51.6061°
RAAN
154.7117°
Arg. of periapsis
319.9198°
True anomaly
40.18287°
Mean anomaly
40.1367°
Eccentric anomaly
40.15978°
Mean motion
4.09795 °/min
Orbital period
87.85 mins
BSTAR
0.00079249
Loading maneuver chart data...
Computing Atmospheric mass density...

Documentation

Showing up to 5 results
|